Regional Weather Roundup
Issued by NWS

Home | Current Version | Previous Version | Graphics & Text | Print | Product List | Glossary On
Versions: 1 2 3 4 5 6 7 8 9 10 11 12 13 14 15 16 17 18 19 20 21 22 23 24 25 26 27 28 29 30 31 32 33 34 35 36 37 38 39 40 41 42 43 44 45 46 47 48 49 50
000
ASUS43 KMKX 310711
RWRWI

WISCONSIN REGIONAL WEATHER ROUNDUP
NATIONAL WEATHER SERVICE MILWAUKEE/SULLIVAN WI
200 AM CDT THU JUL 31 2014

NOTE: "FAIR" INDICATES FEW OR NO CLOUDS BELOW 12,000 FEET WITH NO
SIGNIFICANT WEATHER AND/OR OBSTRUCTIONS TO VISIBILITY.

WIZ001-002-006>008-014>016-023>028-310800-
NORTHWEST WISCONSIN

CITY           SKY/WX    TMP DP  RH WIND       PRES   REMARKS
SUPERIOR ARPT  CLOUDY    64  58  81 W5        29.98F
ASHLAND        PTCLDY    56  55  97 W5        29.98F
HAYWARD        FOG       58  57  97 S3        30.00F VSB 3/4
SIREN          CLEAR     60  57  89 CALM      30.02S
RICE LAKE      CLEAR     58  55  90 CALM      30.03S FOG
LADYSMITH      MOCLDY    61  59  94 CALM      30.02F
EAU CLAIRE     CLEAR     61  59  93 SW5       30.01S
MENOMONIE      SUNNY     64  56  77 W6        30.02F
NEW RICHMOND   CLEAR     59  56  91 CALM      30.03F
OSCEOLA        CLEAR     58  57  98 CALM      30.05F
$$

WIZ003>005-009-010-017-018-310800-
NORTH CENTRAL WISCONSIN

CITY           SKY/WX    TMP DP  RH WIND       PRES   REMARKS
WOODRUFF       PTCLDY    55  47  77 CALM      30.00S
RHINELANDER    PTCLDY    53  53 100 CALM      30.00F
EAGLE RIVER    FOG       48  48 100 CALM      29.99F VSB 1/2
LAND O LAKES   FOG       47  47 100 CALM      30.00F VSB 1/4
PHILLIPS       CLEAR     57  56  99 CALM      30.00S FOG
TOMAHAWK       FOG       50  49  97 CALM      30.01S VSB 1/2
MEDFORD        CLOUDY    59  58  96 CALM      30.01S
MERRILL        PTCLDY    54  54 100 CALM      30.00S
$$

WIZ029-030-035-036-043>047-310800-
CENTRAL WISCONSIN

CITY           SKY/WX    TMP DP  RH WIND       PRES   REMARKS
WAUSAU         MOCLDY    60  58  92 CALM      29.98F
MOSINEE        MOCLDY    59  59 100 W5        30.01S
MARSHFIELD     PTCLDY    60  58  92 W6        30.00F
STEVENS POINT  CLOUDY    60  57  89 CALM      30.01S
WAUPACA        MOCLDY    63  59  88 W3        29.99F
WAUTOMA        CLOUDY    63  59  87 W3        30.00F
WISC RAPIDS    CLOUDY    61  59  93 SW5       30.01F
CAMP DOUGLAS   PTCLDY    60  60 100 SE2       30.02S
$$

WIZ011>013-019>022-031-037>040-048>050-310800-
NORTHEAST WISCONSIN

CITY           SKY/WX    TMP DP  RH WIND       PRES   REMARKS
ANTIGO         PTCLDY    50  49  98 CALM      30.01S
STURGEON BAY   CLEAR     61  55  82 NW7       29.97F
GREEN BAY      CLEAR     58  57  97 W3        29.97F
MANITOWOC      CLEAR     60  56  86 W8        29.97F
APPLETON       CLEAR     57  54  88 W8        29.99S
CLINTONVILLE   CLEAR     54  52  94 CALM      29.98F
OSHKOSH        MOCLDY    62  56  80 W3        29.99S
$$

WIZ032>034-041-042-053>061-310800-
SOUTHWEST WISCONSIN

CITY           SKY/WX    TMP DP  RH WIND       PRES   REMARKS
LA CROSSE      CLEAR     65  61  87 SE6       30.02S
SPARTA         CLEAR     57  56  98 CALM      30.03F
VIROQUA        FAIR      61  60  99 W5        30.05S
BOSCOBEL       CLEAR     61  59  93 SW5       30.04S
PRAIRIE DU CHI CLEAR     60  57  91 CALM      30.04F
PLATTEVILLE    FAIR      62  58  87 SW3       30.06S
$$

WIZ056-057-062-063-064-067-068-310800-
SOUTH CENTRAL WISCONSIN

CITY           SKY/WX    TMP DP  RH WIND       PRES   REMARKS
BARABOO/DELLS  CLOUDY    63  56  78 CALM      30.03R
LONE ROCK      PTCLDY    60  55  83 CALM      30.03F
WATERTOWN      PTCLDY    57  54  88 CALM      30.01S
MADISON        CLOUDY    65  56  72 NW5       30.02S
MIDDLETON      CLOUDY    64  56  77 NW3       30.02F
MONROE         CLEAR     63  55  77 W12       30.04S
JANESVILLE     PTCLDY    57  54  88 CALM      30.02F
$$

WIZ051-052-058>065-066-070>072-310800-
SOUTHEAST WISCONSIN

CITY           SKY/WX    TMP DP  RH WIND       PRES   REMARKS
MILWAUKEE      MOCLDY    63  55  75 CALM      30.01S
WAUKESHA       MOCLDY    57  52  82 CALM      30.02F
MILWAUKEE/TIMM MOCLDY    63  54  72 CALM      30.02S
RACINE         PTCLDY    61  56  83 SW8       30.02F
BURLINGTON     PTCLDY    52  52  99 SW3       30.02S
KENOSHA        CLEAR     59  57  93 SW7       30.02F
FOND DU LAC    PTCLDY    61  55  81 SW5       30.00S
SHEBOYGAN      PTCLDY    57  55  93 SW5       29.98F
WEST BEND      PTCLDY    59  54  82 SW5       30.00F
JUNEAU         PTCLDY    60  52  73 CALM      30.02S
$$

LSZ147-162-310800-
LAKE SUPERIOR

STATION/POSITION TIME  TEMP    WIND        PRES    WAVE
                       AIR SEA DIR/SP/G            HT/PER
                 (UTC) (F)     (DEG/KT/KT) (MB)    (FT/S)
W MID LAKE BUOY  0650   50 41  260/  8/  8 1014.1F   1
PORT WING        0600   60     150/  1/  3 1015.2
SAXON HARBOR     0600          190/  3/  5 1014.9S
$$

LMZ867-665-643>646-310800-
LAKE MICHIGAN

STATION/POSITION TIME  TEMP    WIND        PRES    WAVE
                       AIR SEA DIR/SP/G            HT/PER
                 (UTC) (F)     (DEG/KT/KT) (MB)    (FT/S)
N MID LAKE BUOY  0650   56 54  230/  4/  4 1013.8F   1
NORTHPORT PIER   0600   60     290/  4/  6 1014.6S
SISTER BAY       0625   61     350/ 10/ 11   N/A
ALGOMA LAKESHORE 0606             CALM       N/A
KEWAUNEE LAKESHO 0600   58        CALM     1014.4S
SHEBOYGAN LAKESH 0700   62     250/  8/  9 1015.2F
PORT WASHINGTON  0600   63     290/  2/  3 1016.3F
ATWATER BUOY     0700   63     170/  2     1017.0R
MILWAUKEE LAKESH 0600   64     240/ 11/ 12   N/A
S MID LAKE BUOY  0650   62 60  220/ 10/ 10 1016.4F   0
KENOSHA   LAKESH 0700   63     230/ 10/ 13 1016.3F
$$

TC  - TEMPERATURE IN CELSIUS
VSB - VISIBILITY IN STATUTE MILES
WCI - WIND CHILL INDEX
HX  - HEAT INDEX



USA.gov is the U.S. government's official web portal to all federal, state and local government web resources and services.